Location: Newark
(49.8348°N, 24.0280°E)
Time: 07:47:04
(UTC+00:00)

Transit 2A - Pass Details

Date: 29 January 2020
Orbit: 600 x 959 km, 66.7° (Epoch: 18 February)

Event Time Altitude Azimuth Distance (km) Brightness Sun altitude
Rises 00:50:46 0° 326° (NW) 2,940 - -48.5°
Reaches altitude 10° 00:53:07 10° 335° (NNW) 2,066 - -48.2°
Maximum altitude 00:57:29 38° 44° (NE) 1,051 - -47.6°
Drops below altitude 10° 01:02:13 10° 113° (ESE) 2,248 - -47.0°
Sets 01:04:52 0° 121° (ESE) 3,233 - -46.7°
